• In United Kingdom
  • List of Countries
  • For 7 days
  • Water Temperature
  • Satellite Maps
  • Weather Map
  • Weather Widgets
  • user-avatar
    Login

    Hourly Weather Shusha

    Today, 20 September, Wednesday

    Time Temperature Precipitation Wind Pressure Humidity
    00:00 +18°C° 0 mm 2 mps 662 mmHg 44%
    01:00 +18°C° 0 mm 2 mps 662 mmHg 45%
    02:00 +18°C° 0 mm 1 mps 662 mmHg 46%
    03:00 +18°C° 0 mm 1 mps 662 mmHg 46%
    04:00 +18°C° 0 mm 1 mps 662 mmHg 46%
    05:00 +18°C° 0 mm 1 mps 662 mmHg 46%
    06:00 +16°C° 0 mm 1 mps 662 mmHg 46%
    07:00 +19°C° 0 mm 1 mps 663 mmHg 43%
    08:00 +21°C° 0 mm 2 mps 663 mmHg 40%
    09:00 +24°C° 0 mm 2 mps 664 mmHg 37%
    10:00 +25°C° 0 mm 2 mps 664 mmHg 34%
    11:00 +26°C° 0 mm 2 mps 664 mmHg 32%
    12:00 +28°C° 0 mm 3 mps 664 mmHg 29%
    13:00 +28°C° 0 mm 3 mps 663 mmHg 29%
    14:00 +28°C° 0 mm 3 mps 663 mmHg 29%
    15:00 +28°C° 0 mm 3 mps 663 mmHg 28%
    16:00 +26°C° 0 mm 2 mps 662 mmHg 34%
    17:00 +25°C° 0 mm 2 mps 662 mmHg 39%
    18:00 +23°C° 0 mm 1 mps 661 mmHg 44%
    19:00 +22°C° 0 mm 1 mps 662 mmHg 46%
    20:00 +21°C° 0 mm 1 mps 662 mmHg 48%
    21:00 +21°C° 0 mm 1 mps 662 mmHg 50%
    22:00 +20°C° 0 mm 1 mps 662 mmHg 50%
    23:00 +20°C° 0 mm 1 mps 662 mmHg 50%

    Tomorrow, 21 September, Thursday

    Time Temperature Precipitation Wind Pressure Humidity
    00:00 +20°C° 0 mm 1 mps 662 mmHg 50%
    01:00 +19°C° 0 mm 1 mps 661 mmHg 50%
    02:00 +19°C° 0 mm 1 mps 661 mmHg 50%
    03:00 +18°C° 0 mm 1 mps 661 mmHg 50%
    04:00 +18°C° 0 mm 1 mps 661 mmHg 50%
    05:00 +18°C° 0 mm 1 mps 661 mmHg 49%
    06:00 +18°C° 0 mm 1 mps 661 mmHg 49%
    07:00 +20°C° 0 mm 1 mps 662 mmHg 44%
    08:00 +21°C° 0 mm 2 mps 663 mmHg 40%
    09:00 +25°C° 0 mm 2 mps 663 mmHg 36%
    10:00 +26°C° 0 mm 2 mps 663 mmHg 33%
    11:00 +27°C° 0 mm 2 mps 663 mmHg 30%
    12:00 +28°C° 0 mm 3 mps 663 mmHg 27%
    13:00 +28°C° 0 mm 3 mps 663 mmHg 26%
    14:00 +29°C° 0 mm 3 mps 662 mmHg 26%
    15:00 +29°C° 0 mm 3 mps 662 mmHg 26%
    16:00 +27°C° 0 mm 2 mps 661 mmHg 30%
    17:00 +25°C° 0 mm 2 mps 661 mmHg 34%
    18:00 +23°C° 0 mm 1 mps 660 mmHg 38%
    19:00 +22°C° 0 mm 1 mps 661 mmHg 41%
    20:00 +21°C° 0 mm 1 mps 661 mmHg 44%
    21:00 +20°C° 0 mm 1 mps 661 mmHg 47%
    22:00 +20°C° 0 mm 1 mps 661 mmHg 48%
    23:00 +19°C° 0 mm 1 mps 661 mmHg 50%

    Day after tomorrow, 22 September, Friday

    Time Temperature Precipitation Wind Pressure Humidity
    00:00 +19°C° 0 mm 1 mps 661 mmHg 51%
    01:00 +19°C° 0 mm 1 mps 660 mmHg 52%
    02:00 +18°C° 0 mm 1 mps 660 mmHg 53%
    03:00 +18°C° 0 mm 1 mps 660 mmHg 53%
    04:00 +18°C° 0 mm 1 mps 660 mmHg 54%
    05:00 +16°C° 0 mm 1 mps 660 mmHg 55%
    06:00 +16°C° 0 mm 1 mps 660 mmHg 56%
    07:00 +19°C° 0 mm 1 mps 661 mmHg 50%
    08:00 +20°C° 0 mm 2 mps 661 mmHg 44%
    09:00 +24°C° 0 mm 2 mps 662 mmHg 38%
    10:00 +25°C° 0 mm 2 mps 662 mmHg 35%
    11:00 +26°C° 0 mm 3 mps 661 mmHg 32%
    12:00 +27°C° 0 mm 3 mps 661 mmHg 28%
    13:00 +27°C° 0 mm 3 mps 661 mmHg 29%
    14:00 +28°C° 0 mm 3 mps 660 mmHg 29%
    15:00 +28°C° 0 mm 3 mps 660 mmHg 29%
    16:00 +26°C° 0 mm 3 mps 660 mmHg 34%
    17:00 +24°C° 0 mm 2 mps 659 mmHg 38%
    18:00 +21°C° 0 mm 2 mps 659 mmHg 43%
    19:00 +20°C° 0 mm 2 mps 659 mmHg 46%
    20:00 +19°C° 0 mm 2 mps 659 mmHg 48%
    21:00 +20°C° 0 mm 1 mps 660 mmHg 51%
    22:00 +19°C° 0 mm 1 mps 660 mmHg 53%
    23:00 +19°C° 0 mm 1 mps 660 mmHg 54%

    23 September, Saturday

    Time Temperature Precipitation Wind Pressure Humidity
    00:00 +18°C° 0 mm 1 mps 660 mmHg 55%
    01:00 +18°C° 0 mm 1 mps 660 mmHg 56%
    02:00 +18°C° 0 mm 1 mps 660 mmHg 56%
    03:00 +16°C° 0 mm 1 mps 660 mmHg 56%
    04:00 +16°C° 0 mm 1 mps 660 mmHg 56%
    05:00 +16°C° 0 mm 1 mps 660 mmHg 56%
    06:00 +15°C° 0 mm 1 mps 660 mmHg 56%
    07:00 +19°C° 0 mm 1 mps 661 mmHg 49%
    08:00 +20°C° 0 mm 2 mps 662 mmHg 43%
    09:00 +23°C° 0 mm 2 mps 662 mmHg 36%
    10:00 +24°C° 0 mm 2 mps 663 mmHg 34%
    11:00 +25°C° 0 mm 2 mps 663 mmHg 32%
    12:00 +26°C° 0 mm 3 mps 663 mmHg 29%
    13:00 +27°C° 0 mm 3 mps 663 mmHg 29%
    14:00 +27°C° 0 mm 3 mps 663 mmHg 29%
    15:00 +27°C° 0 mm 3 mps 662 mmHg 30%
    16:00 +25°C° 0 mm 2 mps 662 mmHg 34%
    17:00 +23°C° 0 mm 2 mps 662 mmHg 39%
    18:00 +22°C° 0 mm 1 mps 662 mmHg 43%
    19:00 +21°C° 0 mm 1 mps 662 mmHg 46%
    20:00 +20°C° 0 mm 1 mps 663 mmHg 49%
    21:00 +19°C° 0 mm 1 mps 663 mmHg 51%
    22:00 +19°C° 0 mm 1 mps 663 mmHg 53%
    23:00 +18°C° 0 mm 2 mps 663 mmHg 55%

    24 September, Sunday

    Time Temperature Precipitation Wind Pressure Humidity
    00:00 +17°C° 0 mm 2 mps 663 mmHg 56%
    01:00 +17°C° 0 mm 2 mps 663 mmHg 57%
    02:00 +16°C° 0 mm 1 mps 663 mmHg 58%
    03:00 +16°C° 0 mm 1 mps 663 mmHg 58%
    04:00 +16°C° 0 mm 1 mps 663 mmHg 59%
    05:00 +16°C° 0 mm 1 mps 663 mmHg 60%
    06:00 +15°C° 0 mm 1 mps 663 mmHg 61%
    07:00 +17°C° 0 mm 2 mps 664 mmHg 53%
    08:00 +19°C° 0 mm 2 mps 665 mmHg 46%
    09:00 +23°C° 0 mm 2 mps 665 mmHg 38%
    10:00 +24°C° 0 mm 2 mps 665 mmHg 34%
    11:00 +25°C° 0 mm 3 mps 665 mmHg 31%
    12:00 +26°C° 0 mm 3 mps 665 mmHg 27%
    13:00 +26°C° 0 mm 3 mps 665 mmHg 27%
    14:00 +26°C° 0 mm 3 mps 665 mmHg 27%
    15:00 +27°C° 0 mm 4 mps 664 mmHg 27%
    16:00 +25°C° 0 mm 3 mps 664 mmHg 31%
    17:00 +22°C° 0 mm 3 mps 664 mmHg 35%
    18:00 +20°C° 0 mm 3 mps 664 mmHg 39%
    19:00 +19°C° 0 mm 2 mps 664 mmHg 44%
    20:00 +18°C° 0 mm 2 mps 664 mmHg 49%
    21:00 +18°C° 0 mm 1 mps 664 mmHg 54%
    22:00 +16°C° 0 mm 1 mps 664 mmHg 56%
    23:00 +16°C° 0 mm 1 mps 664 mmHg 58%

    25 September, Monday

    Time Temperature Precipitation Wind Pressure Humidity
    00:00 +15°C° 0 mm 1 mps 663 mmHg 60%
    01:00 +15°C° 0 mm 1 mps 663 mmHg 60%
    02:00 +15°C° 0 mm 1 mps 663 mmHg 59%
    03:00 +15°C° 0 mm 1 mps 663 mmHg 59%
    04:00 +14°C° 0 mm 1 mps 663 mmHg 58%
    05:00 +14°C° 0 mm 1 mps 663 mmHg 57%
    06:00 +14°C° 0 mm 1 mps 663 mmHg 57%
    07:00 +16°C° 0 mm 2 mps 664 mmHg 52%
    08:00 +18°C° 0 mm 2 mps 665 mmHg 47%
    09:00 +20°C° 0 mm 2 mps 665 mmHg 42%
    10:00 +21°C° 0 mm 2 mps 665 mmHg 39%
    11:00 +22°C° 0 mm 3 mps 665 mmHg 36%
    12:00 +24°C° 0 mm 3 mps 665 mmHg 33%
    13:00 +25°C° 0 mm 3 mps 665 mmHg 34%
    14:00 +25°C° 0 mm 3 mps 665 mmHg 34%
    15:00 +25°C° 0 mm 3 mps 665 mmHg 34%
    16:00 +24°C° 0 mm 3 mps 665 mmHg 39%
    17:00 +21°C° 0 mm 3 mps 664 mmHg 44%
    18:00 +19°C° 0 mm 3 mps 664 mmHg 49%
    19:00 +18°C° 0 mm 2 mps 664 mmHg 54%
    20:00 +17°C° 0 mm 2 mps 665 mmHg 58%
    21:00 +16°C° 0 mm 2 mps 665 mmHg 63%
    22:00 +16°C° 0 mm 1 mps 665 mmHg 65%
    23:00 +15°C° 0 mm 1 mps 665 mmHg 66%
    Show more